900  
ASUS44 KMOB 050310  
RWRMOB  
REGIONAL WEATHER ROUNDUP  
NATIONAL WEATHER SERVICE MOBILE AL  
900 PM CST MON MAR 04 2024  
 
NOTE: "FAIR" INDICATES FEW OR NO CLOUDS BELOW 12,000 FEET WITH NO  
SIGNIFICANT WEATHER AND/OR S TO VISIBILITY
.  
 
* THESE STATIONS ARE PART OF THE UNIVERSITY OF SOUTH ALABAMA  
MESONET AND ARE NOT UNDER NWS OR FAA QUALITY CONTROL.
 
 
ALZ061>064-050400-  
COASTAL ALABAMA  
 
CITY SKY/WX TMP DP RH WIND PRES REMARKS
 
MOBILE REG APT RAIN 66 64 93 E12 30.00F FOG  
BROOKLEY FIELD HVY RAIN 66 63 90 SE13 30.00F FOG  
USA CAMPUS* N/A 64 63 94 E9 30.02F  
DOG RIVER* N/A 66 64 94 E14 30.01F  
 
 
CITY SKY/WX TMP DP RH WIND PRES REMARKS
 
GULF SHORES NOT AVBL  
 

 
 
ALZ051>060-050400-  
INTERIOR SOUTHWEST AND SOUTH CENTRAL ALABAMA  
 
CITY SKY/WX TMP DP RH WIND PRES REMARKS
 
GREENVILLE CLOUDY 64 60 87 SE5 30.02S  
EVERGREEN CLOUDY 67 61 81 SE3 30.03R  
ATMORE* N/A 64 63 94 S16 30.04R  
ANDALUSIA/OPP CLOUDY 66 62 87 CALM 30.03R  
ANDALUSIA* N/A 66 63 88 E6 30.04R  
FLORALA APT CLOUDY 67 61 81 SE3 30.04S  
FLORALA* N/A 64 63 94 CALM 30.06F  
 

 
 
FLZ001>006-050400-  
WESTERN FLORIDA PANHANDLE  
 
CITY SKY/WX TMP DP RH WIND PRES REMARKS
 
PENSACOLA RAIN 65 62 90 SE7 30.03R FOG  
NAS PENSACOLA HVY RAIN 68 65 90 SE13 30.02R FOG  
MILTON HVY RAIN 65 63 93 SE6 30.04R FOG  
WHTNG S FIELD HVY RAIN 66 63 90 SE9 30.04R FOG  
 
 
CITY SKY/WX TMP DP RH WIND PRES REMARKS
 
JAY* N/A 66 63 88 S6 30.05R  
DUKE FIELD CLOUDY 67 62 85 SE5 30.02R  
CRESTVIEW CLOUDY 67 62 84 S5 30.04S  
VALPARAISO CLOUDY 69 62 81 SE14 30.01S  
DESTIN CLOUDY 67 62 84 SE9 30.02R  
 

 
 
MSZ076-079-050400-  
INTERIOR SOUTHEAST MISSISSIPPI  
 
CITY SKY/WX TMP DP RH WIND PRES REMARKS
 
LEAKESVILLE* NOT AVBL  
AGRICOLA* N/A 64 64 100 SE3 29.97  
 

 
 
MARINE OBSERVATIONS  
 
STATION/POSITION TIME TEMP WIND PRES WAVE
 
AIR SEA DIR/SP/G HT/PER  
(UTC) (F) (DEG/KT/KT) (MB) (FT/S)  
PETIT BOIS ISLND 0230 63 120/ 5/ 6 1015.1S  
GRAND BAY 0145 66 70/ 12 1017.0R  
CEDAR POINT 0100 69 1029.5  
E DAUPHIN ISLAND NOT AVBL  
USCG MOBILE BAY 0230 64 64 100/ 3/ 5 1016.3R  
STATE DOCKS 0230 66 62 1017.2R  
WEEKS BAY 0145 65 100/ 2 1017.0R  
12 S ORANGE BCH 0250 67 66 100/ 16/ 17 1016.0R 5/ 6  
PENSACOLA BAY 0230 66 73 CALM / 3 1016.4R  
64 S DAUPHIN ISL 0250 72 74 160/ 10/ 16 1015.1R 5/ 6  
 

 
 
SELECTED LOCATIONS ACROSS THE REGION  
 
CITY SKY/WX TMP DP RH WIND PRES REMARKS
 
NEW ORLEANS CLOUDY 67 66 97 E12 29.92R  
GULFPORT CLOUDY 67 64 90 SE14 29.96S  
PASCAGOULA AP LGT RAIN 67 65 93 E8G17 29.97F  
PASCAGOULA* N/A 66 64 94 E7 29.96  
HATTIESBURG LGT RAIN 68 66 93 S3 29.99R  
LAUREL RAIN 66 66 100 SE6 29.99R FOG  
MERIDIAN CLOUDY 67 65 93 SE3 29.98S  
JACKSON LGT RAIN 68 67 96 E5 29.97R  
MONTGOMERY CLOUDY 66 60 81 SE5 30.04R  
TROY CLOUDY 69 60 73 CALM 30.06R  
ASHFORD* N/A 66 63 88 E6 30.04R  
DOTHAN CLOUDY 68 60 75 SE8 30.08R  
PANAMA CITY CLOUDY 69 62 78 E5 30.03R  
 

 
 
 
 
CLICK HERE TO GO TO PREVIOUS BULLETINS.

The Nexlab AL Page
The Nexlab FL Page
The Nexlab MS Page Main Text Page